Погода в Жлобине

Погода в Жлобине : погода сейчас, прогноз погоды и архив. Всё, что Вы хотите узнать о погоде в Жлобине!

Хотите узнать прогноз погоды в Жлобине? Тогда Вам сюда: Погода в Жлобине

Поиск расширенной информации на нашем сайте:

Другие новости

Новости СМИ2

Главная страница сайта

Новости сайта

03.07.2017

Напоминаем, что на нашем специализированном сайте Метеоцентр.Азия вы можете получить высокодетализированные автоматические прогнозы погоды по пунктам России, СНГ и мира в авиационном формате (включающие направление и скорость ветра, видимость, явления погоды, количество и форму облачности, нижнюю и верхнюю границу облачности).


Погода в Жлобине - сегодня

Время (UTC), дата Ветер
(°,м/с) 
Видим.   Явления Облачность Т
(°С)
Тd
(°С)
f(%) Тe
(°С)
Pmin
(гПа)
dP
(гПа)
Po
(мм)
O2
(г/м3)
Тmin Tmax R s Состояние
почвы
15 24.05.18 020 (С) //  30000 м    8/6 600 м верхняя 
[Cu med, cong|Ci fib]
+21.7 +13.8 61 +28  1018.7  -1.1  752  278           
18 24.05.18 000 (С) //  26000 м    6/3 600 м кучево-дожд. 
[Cb cap]
+18.6 +14.3 76 +26  1019.3  0.3  752  281    +22.6       
21 24.05.18 000 (С) //  28000 м    4/3 600 м кучево-дожд. 
[Cb cap]
+16 +13.7 86 +22  1020.2  0.7  752  284           
00 25.05.18 000 (С) //  18000 м    8/4 600 м средняя, верхняя 
[Sc|Ac trans|Ci fib]
+14.4 +13.3 93 +20  1020.4  0.1  753  285           
06 25.05.18 050 (СВ) //  30000 м    6/3 600 м средняя, верхняя 
[Sc|Ac lent|Ci fib]
+19.3 +14.1 72 +26  1022  1.3  754  281  +13.9         
09 25.05.18 070 (В) //  23000 м    8/4 1000 м верхняя 
[Sc diur, vesp|Ci fib]
+23.3 +13 52 +29  1022.4  0.6  755  278           
12 25.05.18 050 (СВ) //  30000 м    6/5 1000 м верхняя 
[Cu med, cong|Ci fib]
+24.1 +11.5 45 +27  1022.3  -0.1  754  277           
15 25.05.18 090 (В) //  28000 м    3/3 1000 м 
[Sc diur, vesp]
+25.4 +9.7 37 +26  1022.4  0.1  755  276           
18 25.05.18 090 (В) //  25000 м    ясно 
+20.5 +12.1 59 +24  1023.8  1.2  755  281    +26       
21 25.05.18 090 (В) //  25000 м    ясно 
+17.7 +10.4 62 +19  1025.8  1.8  757  284           
00 26.05.18 090 (В) //  25000 м    ясно 
+14.6 +8.6 67 +15  1027.4  1.3  758  288           
09 26.05.18 110 (В) //  30000 м    ясно 
+20.5 +5 36 +21  1030  0.5  760  284           
12 26.05.18 140 (ЮВ) //  30000 м    ясно 
+21.8 +3.8 31 +22  1029.3  -0.7  759  283           
15 26.05.18 140 (ЮВ) //  30000 м    ясно 
+22 +2.9 28 +22  1027.9  -1.3  758  282           
18 26.05.18 090 (В) //  21000 м    ясно 
+18.5 +5.1 41 +19  1028.1  0.1  758  285    +22.5       
21 26.05.18 110 (В) //  20000 м    ясно 
+14.6 +5.3 54 +15  1029.1  0.7  759  289           
00 27.05.18 140 (ЮВ) //  23000 м    ясно 
+11.4 +4.8 64 +11  1029.6  0.3  759  293           
03 27.05.18 090 (В) //  15000 м    ясно 
+11 +4.3 63 +11  1029  -0.6  759  293           
06 27.05.18 140 (ЮВ) //  30000 м    ясно 
+16.2 +5.9 50 +16  1028.9  0.3  759  288  +9.4         
09 27.05.18 140 (ЮВ) //  30000 м    ясно 
+20.9 +3.2 31 +21  1028.2  -0.5  759  283           
12 27.05.18 140 (ЮВ) //  30000 м    ясно 
+22.7 +3.2 28 +23  1026.5  -1.6  757  281           
15 27.05.18 140 (ЮВ) //  30000 м    ясно 
+23.1 +4 29 +23  1025.1  -1.4  756  280           
18 27.05.18 000 (С) //  30000 м    ясно 
+19.9 +7.4 44 +20  1024.6  -0.6  756  283    +23.5       
21 27.05.18 000 (С) //  23000 м    ясно 
+13.4 +9.5 77 +14  1025.5  0.4  756  289           
00 28.05.18 000 (С) //  20000 м    ясно 
+10.2 +8.4 89 +10  1026.1  0.5  757  292           
Время (UTC), дата Ветер
(°,м/с) 
Видим.   Явления Облачность Т
(°С)
Тd
(°С)
f(%) Тe
(°С)
Pmin
(гПа)
dP
(гПа)
Po
(мм)
O2
(г/м3)
Тmin Tmax R s Состояние
почвы

Для получения пояснительной информации подведите курсор к названию столбца.

ПОГОДА в Жлобине - архив

Всё, что Вы хотите узнать о погоде в Жлобине - удобно и подробно!

Выберите нужную дату (начиная с 1 января 2015* года) и нажмите кнопку "Найти".
Будут отображены архивные сводки погоды по пункту Жлобин, начиная с указанной даты.


Отображать данные в формате CSV (для использования в таблицах Excel)


Внимание! Наш архив погоды предназначен исключительно для личного некоммерческого использования в познавательных целях. Если Вам необходимы официальные справки о состоянии погоды (для производственных, юридических, коммерческих и т.п. целей), обращайтесь в органы Росгидромета.

*Примечание: данная дата относится к архиву по метеостанциям СССР (Россия, СНГ, Балтия).
Архив по метеостанциям Зарубежной Европы и Азии (кроме Китая) хранится 10 дней, по другим регионам земного шара (Китай, Африка, Америка, Австралия, Океания) - 1 день.

Жлобин - район местоположения метеостанции


Название, широта, долгота, высота метеостанции:
Жлобин 52.9°ш. 30°д. 142 м над ур. моря [Беларусь]

Дополнительная информация

В oтличие oт бoльшинства пoгoдных сайтoв мы публикуем пoдрoбную метеoинфoрмацию в детальнoм прoфессиoнальнoм фoрмате.

Характеристики температуры и влажнoсти вoздуха измеряются на высoте 2 м в тени вдали oт зданий и деревьев.
Скoрoсть ветра измеряется на высoте 10 м (на урoвне рoста челoвека скoрoсть ветра ниже в 1.5-2 раза). Если метеoстанция нахoдится в гoрoде или в лесу, тo скoрoсть ветра занижена на 2-4 м/с пo сравнению с oткрытым местoм. Скoрoсть ветра над акватoриями крупных рек и oзёр, а также на вершинах хoлмoв на 2-5 м/с выше, чем в oбычных услoвиях.
Атмoсфернoе давление в разных тoчках местнoсти мoжет значительнo oтличаться oт давления на метеoстанции, в зависимoсти oт услoвий рельефа (при пoдъёме на 10 м давление пoнижается примернo на 1 мм рт.ст.).